TimeEDT,TemperatureF,Dew PointF,Humidity,Sea Level PressureIn,VisibilityMPH,Wind Direction,Wind SpeedMPH,Gust SpeedMPH,PrecipitationIn,Events,Conditions,WindDirDegrees,DateUTC
12:53 AM,55.9,45.0,67,29.85,10.0,SE,5.8,-,N/A,,Clear,140,2012-10-18 04:53:00
1:53 AM,55.0,46.0,72,29.86,10.0,ESE,3.5,-,N/A,,Clear,120,2012-10-18 05:53:00
2:53 AM,54.0,46.9,77,29.86,10.0,ESE,4.6,-,N/A,,Clear,110,2012-10-18 06:53:00
3:53 AM,53.1,46.9,80,29.85,10.0,East,4.6,-,N/A,,Clear,90,2012-10-18 07:53:00
4:53 AM,55.0,50.0,83,29.85,10.0,ESE,5.8,-,N/A,,Clear,120,2012-10-18 08:53:00
5:36 AM,55.4,51.8,88,29.86,10.0,ESE,5.8,-,N/A,,Mostly Cloudy,110,2012-10-18 09:36:00
5:44 AM,55.4,51.8,88,29.87,10.0,ESE,4.6,-,N/A,,Overcast,120,2012-10-18 09:44:00
5:53 AM,55.9,52.0,87,29.87,10.0,NNW,4.6,-,N/A,,Overcast,340,2012-10-18 09:53:00
6:53 AM,55.0,54.0,96,29.87,5.0,ESE,3.5,-,0.10,Rain,Light Rain,110,2012-10-18 10:53:00
7:36 AM,53.6,53.6,100,29.86,5.0,ESE,5.8,-,0.01,,Overcast,120,2012-10-18 11:36:00
7:53 AM,55.0,54.0,96,29.84,5.0,East,5.8,-,0.01,,Overcast,100,2012-10-18 11:53:00
8:09 AM,53.6,53.6,100,29.84,2.5,East,6.9,-,N/A,,Overcast,100,2012-10-18 12:09:00
8:18 AM,53.6,53.6,100,29.85,2.0,ESE,5.8,-,N/A,,Overcast,110,2012-10-18 12:18:00
8:29 AM,53.6,53.6,100,29.85,1.8,East,6.9,-,N/A,,Overcast,100,2012-10-18 12:29:00
8:53 AM,55.0,54.0,96,29.85,1.2,Calm,Calm,-,N/A,,Overcast,0,2012-10-18 12:53:00
9:27 AM,55.4,55.4,100,29.87,1.0,East,3.5,-,N/A,,Overcast,100,2012-10-18 13:27:00
9:37 AM,55.4,55.4,100,29.87,0.5,East,3.5,-,N/A,Fog,Fog,90,2012-10-18 13:37:00
9:53 AM,55.9,55.0,97,29.85,0.8,NE,4.6,-,N/A,,Mist,50,2012-10-18 13:53:00
10:53 AM,57.0,57.0,100,29.86,0.2,Calm,Calm,-,N/A,Fog,Fog,0,2012-10-18 14:53:00
11:26 AM,57.2,57.2,100,29.88,1.2,SSE,4.6,-,N/A,,Overcast,150,2012-10-18 15:26:00
11:50 AM,57.2,57.2,100,29.88,0.8,SE,4.6,-,N/A,,Overcast,130,2012-10-18 15:50:00
11:51 AM,57.9,57.9,100,29.86,0.8,Variable,4.6,-,N/A,,Overcast,0,2012-10-18 15:51:00
12:16 PM,59.0,57.2,94,29.88,1.2,SE,4.6,-,N/A,,Overcast,140,2012-10-18 16:16:00
12:23 PM,59.0,57.2,94,29.87,2.0,SE,3.5,-,N/A,,Overcast,140,2012-10-18 16:23:00
12:29 PM,59.0,57.2,94,29.87,3.0,SSE,4.6,-,N/A,,Overcast,150,2012-10-18 16:29:00
12:53 PM,60.1,59.0,96,29.84,6.0,South,6.9,-,N/A,,Overcast,190,2012-10-18 16:53:00
1:12 PM,62.6,59.0,88,29.85,6.0,SSE,4.6,-,N/A,,Overcast,150,2012-10-18 17:12:00
1:40 PM,62.6,59.0,88,29.84,6.0,ESE,4.6,-,N/A,,Overcast,120,2012-10-18 17:40:00
1:53 PM,62.1,59.0,90,29.82,4.0,ESE,4.6,-,N/A,,Overcast,120,2012-10-18 17:53:00
2:00 PM,62.6,59.0,88,29.84,5.0,SE,5.8,-,N/A,,Overcast,130,2012-10-18 18:00:00
2:22 PM,60.8,59.0,94,29.84,3.0,Calm,Calm,-,N/A,,Overcast,0,2012-10-18 18:22:00
2:53 PM,63.0,60.1,90,29.81,3.0,Calm,Calm,-,N/A,,Overcast,0,2012-10-18 18:53:00
3:20 PM,64.4,60.8,88,29.83,8.0,Calm,Calm,-,N/A,,Overcast,0,2012-10-18 19:20:00
3:53 PM,66.9,61.0,81,29.81,10.0,WSW,5.8,-,N/A,,Overcast,240,2012-10-18 19:53:00
4:53 PM,69.1,61.0,75,29.80,10.0,NNW,6.9,-,N/A,,Scattered Clouds,340,2012-10-18 20:53:00
5:53 PM,66.9,61.0,81,29.79,10.0,East,6.9,-,N/A,,Scattered Clouds,100,2012-10-18 21:53:00
6:00 PM,66.2,60.8,83,29.82,10.0,East,4.6,-,N/A,,Mostly Cloudy,100,2012-10-18 22:00:00
6:07 PM,66.2,60.8,83,29.82,9.0,East,4.6,-,N/A,,Scattered Clouds,100,2012-10-18 22:07:00
6:53 PM,64.9,61.0,87,29.81,7.0,Calm,Calm,-,N/A,,Mostly Cloudy,0,2012-10-18 22:53:00
7:53 PM,64.0,61.0,90,29.81,8.0,East,3.5,-,N/A,,Scattered Clouds,100,2012-10-18 23:53:00
8:53 PM,63.0,61.0,93,29.81,6.0,SE,4.6,-,N/A,,Clear,130,2012-10-19 00:53:00
9:53 PM,63.0,60.1,90,29.81,10.0,SSW,3.5,-,N/A,,Clear,210,2012-10-19 01:53:00
10:53 PM,61.0,59.0,93,29.82,10.0,NW,4.6,-,0.01,,Clear,320,2012-10-19 02:53:00
11:53 PM,61.0,51.1,70,29.83,10.0,West,9.2,-,N/A,,Scattered Clouds,280,2012-10-19 03:53:00